Find Starlink 30401

NORAD ID: 57818 Int'l Des: 2023-138 Owner: SPXS Country: US Constellation: starlink operational
LEOCIRCULAR

現在のビュー

3D地球を読み込み中...

About Starlink 30401

Starlink 30401 (NORAD 57818) is a starlink constellation satellite (v2 mini) launched Sep 9, 2023 by SPXS of US. It operates in LEO, CIRCULAR orbit with a mass of 730.00 kg.

次回通過

Passes for default location (London). Set your location on the main map for personalized predictions.

高度履歴

Loading altitude history...

軌道要素

1 57818U 23138L 26262.29350624 .00000104 00000-0 13321-4 0 9994
2 57818 43.0024 221.1329 0001392 264.1491 95.9203 15.27579112168245
Epoch: Sep 19, 2026 • Age: 37 hours

現在のステータス

高度 490.9 km
遠地点 / 近地点 N/A
速度 7.62 km/s
衛星直下点 -31.64°S, 135.83°W
打ち上げ日 Sep 9, 2023
運用期間 3 years
タイプ internet

技術仕様

分類 Payload
質量 730.00 kg
乾燥質量 700.00 kg
長さ 0.30 m
スパン 29.00 m
形状 ? Box + pan
製造者 SPXS
バスタイプ Starlink V2M
フェーズステータス In Orbit
所有者/国 SPXS/US

Most Searched